Starlink 3976

operational
NORAD ID: 52673 Int'l Des: 2022-053 Owner: SPXS Country: US Constellation: starlink
LEOCIRCULAR

Starlink 3976について

説明を読み込み中...

リアルタイム位置

3D地球を読み込み中...

次回通過

高度履歴

Altitude vs Time

uPlot chart will show altitude changes over time

軌道要素

1 52673U 22053T 25304.60035640 .00009637 00000-0 62231-3 0 9995
2 52673 53.2170 13.6249 0001503 85.6712 274.4452 15.08864720191556
Epoch: Oct 31, 2025 • Age: 28 hours

現在のステータス

高度 559.2 km
速度 7.58 km/s
衛星直下点 -53.28°S, 38.04°W
打ち上げ日 May 18, 2022
運用期間 3.4 years
タイプ internet

技術仕様

分類 Payload
質量 297.00 kg
乾燥質量 275.00 kg
総質量 297.00 kg
長さ 0.20 m
直径 2.80 m
スパン 9.00 m
形状 Box + pan
製造者 SPXS
バスタイプ Starlink
フェーズステータス In Orbit
所有者/国 SPXS/US

大規模コンステレーション

Loading constellations...